NSS-9

Last updated on Sat Dec 13 2025 00:02:47 GMT+0000 (Coordinated Universal Time)

1 33749U 09008A 25346.24126557 .00000082 00000+0 00000+0 0 9993 2 33749 0.7789 84.3659 0002240 167.5962 99.1445 1.00272714 61641
UTC large
Height (km)
Speed (km/s)
/
Latitude / Longitude
Inclination (degrees)
Orbital Period (minutes)
Azimuth
Elevation
Range (km)
Doppler Factor

Next 0 passes for location: London (51.5072 / 0.1276)

Sorry there are no passes over London.